Location: Kelshall
(52.0000°N, 0.0500°W)
Time: 05:18:01
(UTC+00:00)

ATLAS 3B R/B - Pass Details

Date: 18 September 2020
Orbit: 1016 x 1179 km, 63.8° (Epoch: 04 October)

Event Time Altitude Azimuth Distance (km) Brightness Sun altitude
Rises 19:28:47 0° 307° (NW) 3,793 7.2 -13.1°
Reaches altitude 10° 19:31:35 10° 315° (NW) 2,856 6.0 -13.5°
Maximum altitude 19:37:53 40° 24° (NNE) 1,528 3.5 -14.4°
Enters shadow 19:42:49 17° 85° (E) 2,456 4.1 -15.1°
